Regional Weather Roundup
Issued by NWS Newport/Morehead, NC

Current Version | Previous Version | Text Only | Print | Product List | Glossary On
Versions: 1 2 3 4 5 6 7 8 9 10 11 12 13 14 15 16 17 18 19 20 21 22 23 24 25 26 27 28 29 30 31 32 33 34 35 36 37 38 39 40 41 42 43 44 45 46 47 48 49 50
000 ASUS42 KMHX 100613 RWRMHX WEATHER ROUNDUP FOR EASTERN NORTH CAROLINA NATIONAL WEATHER SERVICE NEWPORT/MOREHEAD CITY NC 100 AM EST WED FEB 10 2016 NOTE: "FAIR" INDICATES FEW OR NO CLOUDS BELOW 12,000 FEET WITH NO SIGNIFICANT WEATHER AND/OR OBSTRUCTIONS TO VISIBILITY NCZ015>017-031-032-045>047-102-103-100700- NORTH COAST CITY SKY/WX TMP DP RH WIND PRES REMARKS EDENTON CLEAR 38 22 52 W10G16 29.78S ELIZABETH CITY CLEAR 34 23 64 SW10 29.75S KITTY HAWK PTCLDY 38 22 51 W10G20 29.74R MANTEO MOCLDY 38 28 67 W12 29.76S $$ NCZ045>047-081-094-103-104-100700- CENTRAL COAST CITY SKY/WX TMP DP RH WIND PRES REMARKS FRISCO CLEAR 40 22 48 W14G25 29.79R SWANQUARTER N/A 39 N/A N/A W7G14 29.77S $$ NCZ095-097-098-100-101-100700- SOUTHERN COAST CITY SKY/WX TMP DP RH WIND PRES REMARKS BEAUFORT CLOUDY 39 27 62 W18 29.82S CEDAR ISLAND N/A 39 N/A N/A SW7G15 29.85S JACKSONVILLE CLOUDY 38 21 50 W10 29.84R PINEY ISLAND CLOUDY N/A N/A N/A SW8 29.80F WILMINGTON CLOUDY 38 25 59 W16G23 29.86S $$ NCZ011>013-027>030-043-044-078>080-089-090>093-098-100700- COASTAL PLAIN CITY SKY/WX TMP DP RH WIND PRES REMARKS AHOSKIE PTCLDY 31 18 57 CALM 29.78S CLINTON PTCLDY 32 15 48 W8 29.87S ELIZABETHTOWN CLOUDY 35 13 39 NW10 29.87S GOLDSBORO CLEAR 32 14 47 W9 29.82S GREENVILLE CLEAR 34 16 47 W8 29.84R HAVELOCK CLOUDY 39 26 59 W12 29.82S KENANSVILLE CLOUDY 33 14 44 W7 29.87R KINSTON PTCLDY 33 14 44 W8G16 29.84R NEW BERN CLOUDY 38 18 44 W12 29.83R RICHLANDS CLOUDY 37 16 41 W7 29.85R ROCKY MOUNT CLEAR 30 15 53 W6 29.82S WASHINGTON CLOUDY 35 19 54 W13 29.80S WHITEVILLE CLOUDY 37 26 66 W5 29.88R $$ AMZ130-135-150-152-154-156-158-170-250-252-270-ANZ085-086-088-633-658-670-100700- MARINE OBSERVATIONS STATION/POSITION TIME TEMP WIND PRES WAVE SWELL AIR SEA DIR/SP/G HT/PER HT/PER (UTC) (F) (DEG/KT/KT) (MB) (FT/S) (FT/S) CHESAPEAKE LIGHT 0600 37 270/ 22/ 25 1006.5 64 E VA BEACH 0550 42 50 280/ 21/ 27 1005.4 10/14 7/14 DUCK 0500 39 270/ 15/ 20 1006.7 2 E DUCK 0511 44 N/A 4/14 3/14 OREGON INLET 0500 40 46 260/ 11/ 16 1007.5 13E OREGON INLT 0600 47 N/A 7/13 7/13 HATTERAS CG 0500 42 52 260/ 20/ 26 1007.9 DIAMOND BUOY 0550 45 73 270/ 23/ 29 1008.2 10/15 7/15 CAPE LOOKOUT NOT AVBL BEAUFORT LAB 0500 40 48 270/ 6/ 18 1008.7 30 SE NEW RVR IN 0508 45 60 1009.6 30 SE NEW RVR IN 0525 60 N/A 9/10 3/11 27 SE WRIGHTSVLE 0508 44 60 360/ 23/ 29 1009.2 5 SE WRIGHTSVLE NOT AVBL 225 S CAPE HAT 0550 56 68 280/ 23/ 31 N/A 18/11 11/11 41 SE CHARLESTON 0550 44 64 280/ 29/ 35 1013.2 8/ 5 2/16 $$

USA.gov is the U.S. government's official web portal to all federal, state and local government web resources and services.